User: anonymous   Login
Location: Newark
(0.5333°S, 166.9167°E)
Time: 15:12:55
(UTC+00:00)
Language:

BEESAT 3 - Orbit

View from above orbital plane
View from above orbital plane
View from above satellite
View from above satellite

Ground track
Ground track

The orbit data is extracted from the following two-line orbital elements,

1 39134U 13015E   19140.08392549  .00001043  00000-0  57136-4 0  9999
2 39134  64.8620 116.3554 0028248 309.0466  50.8147 15.20086351336092
Epoch (UTC): 20 May 2019 02:00:51
Eccentricity: 0.0028248
inclination: 64.8620°
perigee height: 486 km
apogee height: 525 km
right ascension of ascending node: 116.3554°
argument of perigee: 309.0466°
revolutions per day: 15.20086351
mean anomaly at epoch: 50.8147°
orbit number at epoch: 33609

The dashed part of the orbit path shows where the satellite is in the earth's shadow,  

DLR